User: anonymous   Login
Location: Fort Wayne
(41.1310°N, 85.1290°W)
Time: 19:06:11
(UTC-04:00)
Language:

Cosmos 2219 Rocket - Orbit

View from above orbital plane
View from above orbital plane
View from above satellite
View from above satellite

Ground track
Ground track

The orbit data is extracted from the following two-line orbital elements,

1 22220U 92076B   16125.57088948 -.00000201  00000-0 -76964-4 0  9997
2 22220  71.0001 199.3487 0012971 185.7736 272.6870 14.16394946212911
Epoch (UTC): 04 May 2016 13:42:04
Eccentricity: 0.0012971
inclination: 71.0001°
perigee height: 828 km
apogee height: 847 km
right ascension of ascending node: 199.3487°
argument of perigee: 185.7736°
revolutions per day: 14.16394946
mean anomaly at epoch: 272.6870°
orbit number at epoch: 21291

The dashed part of the orbit path shows where the satellite is in the earth's shadow,  

DLR